Location: Archemont
(49.1579°N, 1.7598°E)
Time: 15:47:12
(UTC+00:00)

Cosmos 1461 - Pass Details

Date: 03 February 2023
Orbit: 492 x 643 km, 65.0° (Epoch: 30 March)

Event Time Altitude Azimuth Distance (km) Brightness Sun altitude
Rises 17:30:25 0° 179° (S) 2,733 6.6 -6.6°
Reaches altitude 10° 17:32:57 10° 164° (SSE) 1,873 5.6 -7.0°
Maximum altitude 17:36:13 22° 113° (ESE) 1,304 4.3 -7.5°
Drops below altitude 10° 17:39:37 10° 63° (ENE) 1,962 5.0 -8.0°
Enters shadow 17:39:42 10° 62° (ENE) 1,989 5.0 -8.1°
